Weather reports worldwide

Advertisment
Aviano, Italy (16036): temperature & dewpoint: 19.09.2018 12:00:00 - 25.09.2018 12:00:00 (CEST)Aviano, Italy (16036): wind speed: 19.09.2018 12:00:00 - 25.09.2018 12:00:00 (CEST)Aviano, Italy (16036): wind direction: 19.09.2018 12:00:00 - 25.09.2018 12:00:00 (CEST)Aviano, Italy (16036): reduced air pressure: 19.09.2018 12:00:00 - 25.09.2018 12:00:00 (CEST)Aviano, Italy (16036): visibility: 19.09.2018 12:00:00 - 25.09.2018 12:00:00 (CEST)
Date & Time tt [°C] td [°C] ff [km/h] ff [kn] dd ppp [hPa] vv [km]
25.09.2018 12:00:00 - - - - - - -
25.09.2018 11:00:00 18,0 1,9 5 3 SE 1032,3 30
25.09.2018 10:00:00 - - - - - - -
25.09.2018 09:00:00 - - - - - - -
25.09.2018 08:00:00 8,4 6,5 9 5 NNE 1031,6 30
25.09.2018 07:00:00 - - - - - - -
25.09.2018 06:00:00 - - - - - - -
25.09.2018 05:00:00 - - - - - - -
25.09.2018 04:00:00 - - - - - - -
25.09.2018 03:00:00 - - - - - - -
25.09.2018 02:00:00 - - - - - - -
25.09.2018 01:00:00 - - - - - - -
25.09.2018 00:00:00 - - - - - - -
24.09.2018 23:00:00 - - - - - - -
24.09.2018 22:00:00 - - - - - - -
24.09.2018 21:00:00 - - - - - - -
24.09.2018 20:00:00 18,2 5,1 8 4 SE 1024,9 30
24.09.2018 19:00:00 - - - - - - -
24.09.2018 18:00:00 - - - - - - -
24.09.2018 17:00:00 22,8 5,2 15 8 S 1021,0 30
24.09.2018 16:00:00 - - - - - - -
24.09.2018 15:00:00 - - - - - - -
24.09.2018 14:00:00 25,2 2,6 35 19 E 1018,1 30
24.09.2018 13:00:00 - - - - - - -
24.09.2018 12:00:00 - - - - - - -
24.09.2018 11:00:00 24,2 5,5 29 16 ENE 1015,6 25
24.09.2018 10:00:00 - - - - - - -
24.09.2018 09:00:00 - - - - - - -
24.09.2018 08:00:00 19,0 18,2 9 5 NNE 1011,3 9
24.09.2018 07:00:00 - - - - - - -
24.09.2018 06:00:00 - - - - - - -
24.09.2018 05:00:00 - - - - - - -
24.09.2018 04:00:00 - - - - - - -
24.09.2018 03:00:00 - - - - - - -
24.09.2018 02:00:00 - - - - - - -
24.09.2018 01:00:00 - - - - - - -
24.09.2018 00:00:00 - - - - - - -
23.09.2018 23:00:00 - - - - - - -
23.09.2018 22:00:00 - - - - - - -
23.09.2018 21:00:00 - - - - - - -
23.09.2018 20:00:00 - - - - - - -
23.09.2018 19:00:00 - - - - - - -
23.09.2018 18:00:00 - - - - - - -
23.09.2018 17:00:00 - - - - - - -
23.09.2018 16:00:00 - - - - - - -
23.09.2018 15:00:00 - - - - - - -
23.09.2018 14:00:00 - - - - - - -
23.09.2018 13:00:00 - - - - - - -
23.09.2018 12:00:00 - - - - - - -
23.09.2018 11:00:00 - - - - - - -
23.09.2018 10:00:00 - - - - - - -
23.09.2018 09:00:00 - - - - - - -
23.09.2018 08:00:00 - - - - - - -
23.09.2018 07:00:00 - - - - - - -
23.09.2018 06:00:00 - - - - - - -
23.09.2018 05:00:00 - - - - - - -
23.09.2018 04:00:00 - - - - - - -
23.09.2018 03:00:00 - - - - - - -
23.09.2018 02:00:00 - - - - - - -
23.09.2018 01:00:00 - - - - - - -
23.09.2018 00:00:00 - - - - - - -
22.09.2018 23:00:00 - - - - - - -
22.09.2018 22:00:00 - - - - - - -
22.09.2018 21:00:00 - - - - - - -
22.09.2018 20:00:00 18,2 14,9 8 4 E 1018,7 20
22.09.2018 19:00:00 - - - - - - -
22.09.2018 18:00:00 - - - - - - -
22.09.2018 17:00:00 20,0 16,8 13 7 ENE 1018,3 15
22.09.2018 16:00:00 - - - - - - -
22.09.2018 15:00:00 - - - - - - -
22.09.2018 14:00:00 24,4 20,7 9 5 NE 1016,5 15
22.09.2018 13:00:00 - - - - - - -
22.09.2018 12:00:00 - - - - - - -
22.09.2018 11:00:00 22,6 21,4 9 5 ENE 1016,3 12
22.09.2018 10:00:00 - - - - - - -
22.09.2018 09:00:00 - - - - - - -
22.09.2018 08:00:00 20,6 20,0 9 5 NE 1014,7 10
22.09.2018 07:00:00 - - - - - - -
22.09.2018 06:00:00 - - - - - - -
22.09.2018 05:00:00 - - - - - - -
22.09.2018 04:00:00 - - - - - - -
22.09.2018 03:00:00 - - - - - - -
22.09.2018 02:00:00 - - - - - - -
22.09.2018 01:00:00 - - - - - - -
22.09.2018 00:00:00 - - - - - - -
21.09.2018 23:00:00 - - - - - - -
21.09.2018 22:00:00 - - - - - - -
21.09.2018 21:00:00 - - - - - - -
21.09.2018 20:00:00 24,4 18,6 8 4 SSW 1013,3 15
21.09.2018 19:00:00 - - - - - - -
21.09.2018 18:00:00 - - - - - - -
21.09.2018 17:00:00 28,8 18,9 15 8 SSW 1013,5 25
21.09.2018 16:00:00 - - - - - - -
21.09.2018 15:00:00 - - - - - - -
21.09.2018 14:00:00 28,2 18,9 9 5 SSW 1014,3 25
21.09.2018 13:00:00 - - - - - - -
21.09.2018 12:00:00 - - - - - - -
21.09.2018 11:00:00 26,2 17,8 8 4 SW 1015,6 20
21.09.2018 10:00:00 - - - - - - -
21.09.2018 09:00:00 - - - - - - -
21.09.2018 08:00:00 18,8 16,8 5 3 NNE 1016,0 20
21.09.2018 07:00:00 - - - - - - -
21.09.2018 06:00:00 - - - - - - -
21.09.2018 05:00:00 - - - - - - -
21.09.2018 04:00:00 - - - - - - -
21.09.2018 03:00:00 - - - - - - -
21.09.2018 02:00:00 - - - - - - -
21.09.2018 01:00:00 - - - - - - -
21.09.2018 00:00:00 - - - - - - -
20.09.2018 23:00:00 - - - - - - -
20.09.2018 22:00:00 - - - - - - -
20.09.2018 21:00:00 - - - - - - -
20.09.2018 20:00:00 24,8 17,5 4 2 NNE 1016,9 20
20.09.2018 19:00:00 - - - - - - -
20.09.2018 18:00:00 - - - - - - -
20.09.2018 17:00:00 30,0 14,9 2 1 SW 1016,8 20
20.09.2018 16:00:00 30,0 15,0 5 3 SE - 10
20.09.2018 15:00:00 30,0 16,0 4 2 SSW - 10
20.09.2018 14:00:00 29,6 16,4 8 4 SE 1018,2 25
20.09.2018 13:00:00 29,0 17,0 9 5 SSE - 10
20.09.2018 12:00:00 - - - - - - -
20.09.2018 11:00:00 27,6 17,7 11 6 E 1019,6 25
20.09.2018 10:00:00 - - - - - - -
20.09.2018 09:00:00 - - - - - - -
20.09.2018 08:00:00 20,0 18,7 4 2 E 1019,3 25
20.09.2018 07:00:00 - - - - - - -
20.09.2018 06:00:00 18,0 17,0 8 4 NNE - 10
20.09.2018 05:00:00 - - - - - - -
20.09.2018 04:00:00 - - - - - - -
20.09.2018 03:00:00 - - - - - - -
20.09.2018 02:00:00 - - - - - - -
20.09.2018 01:00:00 - - - - - - -
20.09.2018 00:00:00 - - - - - - -
19.09.2018 23:00:00 - - - - - - -
19.09.2018 22:00:00 23,0 18,0 13 7 NNE - 10
19.09.2018 21:00:00 23,0 19,0 8 4 ENE - 10
19.09.2018 20:00:00 25,0 20,3 9 5 NE 1018,8 15
19.09.2018 19:00:00 27,0 20,0 8 4 E - 10
19.09.2018 18:00:00 28,0 20,0 4 2 SE - 10
19.09.2018 17:00:00 28,4 19,4 5 3 S 1018,2 25
19.09.2018 16:00:00 28,0 20,0 5 3 SSW - 10
19.09.2018 15:00:00 28,0 21,0 8 4 SW - 10
19.09.2018 14:00:00 27,0 20,3 9 5 SSW 1019,0 25
19.09.2018 13:00:00 27,0 21,0 8 4 S - 10
19.09.2018 12:00:00 25,0 21,0 5 3 SSW - 10

tt = temperature
td = dewpoint
ff = wind speed
dd = wind direction
ppp = reduced air pressure
vv = visibility

Next stations